| time (UTC) | temp F | wind direction | speed MPH | gust MPH | rain 1hr in | rain 24hr in | rain mn in | humidity % | barometer mb |
| 20260905201538 | 79 | 206 | 1.0 | 1.0 | 0.00 | 0.05 | 0.05 | 67 | 1016.3 |
| 20260905201037 | 78 | 141 | 4.0 | 5.0 | 0.00 | 0.05 | 0.05 | 67 | 1016.3 |
| 20260905200533 | 78 | 196 | 1.0 | 1.0 | 0.00 | 0.05 | 0.05 | 68 | 1016.1 |
| 20260905200032 | 78 | 216 | 0.0 | 5.0 | 0.00 | 0.05 | 0.05 | 68 | 1015.8 |
| 20260905195526 | 78 | 209 | 1.0 | 3.0 | 0.00 | 0.05 | 0.05 | 69 | 1015.5 |
| 20260905195022 | 77 | 210 | 3.0 | 6.0 | 0.00 | 0.05 | 0.05 | 69 | 1015.6 |
| 20260905194521 | 77 | 227 | 1.0 | 5.0 | 0.00 | 0.05 | 0.05 | 69 | 1015.9 |
| 20260905194015 | 77 | 199 | 0.0 | 3.0 | 0.00 | 0.05 | 0.05 | 70 | 1015.9 |
| 20260905193510 | 77 | 141 | 3.0 | 3.0 | 0.00 | 0.05 | 0.05 | 71 | 1016.1 |
| 20260905193006 | 77 | 103 | 2.0 | 3.0 | 0.00 | 0.05 | 0.05 | 72 | 1016.3 |
| 20260905192501 | 76 | 179 | 1.0 | 2.0 | 0.00 | 0.05 | 0.05 | 73 | 1016.2 |
| 20260905191957 | 76 | 162 | 1.0 | 2.0 | 0.00 | 0.05 | 0.05 | 73 | 1016.2 |
| 20260905191455 | 75 | 179 | 2.0 | 5.0 | 0.00 | 0.05 | 0.05 | 74 | 1016.2 |
| 20260905190954 | 75 | 212 | 1.0 | 3.0 | 0.00 | 0.05 | 0.05 | 74 | 1016.1 |
| 20260905190452 | 75 | 182 | 2.0 | 5.0 | 0.00 | 0.05 | 0.05 | 74 | 1016.3 |
| 20260905185951 | 75 | 167 | 1.0 | 3.0 | 0.00 | 0.05 | 0.05 | 74 | 1016.4 |
| 20260905185447 | 74 | 208 | 1.0 | 5.0 | 0.00 | 0.05 | 0.05 | 75 | 1016.7 |
| 20260905184945 | 74 | 128 | 1.0 | 8.0 | 0.00 | 0.05 | 0.05 | 76 | 1016.7 |
| 20260905184441 | 74 | 142 | 3.0 | 3.0 | 0.00 | 0.05 | 0.05 | 76 | 1016.8 |
| 20260905183939 | 73 | 204 | 0.0 | 3.0 | 0.00 | 0.05 | 0.05 | 78 | 1016.7 |
| 20260905183433 | 73 | 200 | 1.0 | 5.0 | 0.00 | 0.05 | 0.05 | 78 | 1016.6 |
| 20260905182929 | 72 | 152 | 1.0 | 5.0 | 0.00 | 0.05 | 0.05 | 80 | 1016.5 |
| 20260905182428 | 72 | 162 | 1.0 | 5.0 | 0.00 | 0.05 | 0.05 | 80 | 1016.2 |
| 20260905181924 | 72 | 116 | 1.0 | 5.0 | 0.00 | 0.05 | 0.05 | 80 | 1016.6 |
| 20260905181418 | 72 | 149 | 1.0 | 7.0 | 0.00 | 0.05 | 0.05 | 81 | 1016.6 |
| 20260905180918 | 71 | 185 | 2.0 | 5.0 | 0.00 | 0.05 | 0.05 | 82 | 1016.6 |
| 20260905180413 | 71 | 215 | 0.0 | 3.0 | 0.00 | 0.05 | 0.05 | 83 | 1016.8 |
| 20260905175913 | 71 | 357 | 1.0 | 2.0 | 0.00 | 0.05 | 0.05 | 84 | 1016.5 |
| 20260905175412 | 70 | 280 | 1.0 | 3.0 | 0.00 | 0.05 | 0.05 | 85 | 1016.8 |
| 20260905174907 | 69 | 165 | 2.0 | 5.0 | 0.00 | 0.05 | 0.05 | 86 | 1016.7 |
| 20260905174403 | 69 | 176 | 1.0 | 3.0 | 0.00 | 0.05 | 0.05 | 88 | 1017.2 |
| 20260905173858 | 69 | 76 | 2.0 | 5.0 | 0.00 | 0.05 | 0.05 | 89 | 1017.2 |
| 20260905173355 | 68 | 56 | 1.0 | 2.0 | 0.00 | 0.05 | 0.05 | 91 | 1017.0 |
| 20260905172849 | 67 | 8 | 3.0 | 5.0 | 0.00 | 0.05 | 0.05 | 92 | 1017.2 |
| 20260905172347 | 67 | 129 | 4.0 | 6.0 | 0.00 | 0.05 | 0.05 | 93 | 1016.9 |
| 20260905171843 | 67 | 219 | 1.0 | 3.0 | 0.00 | 0.05 | 0.05 | 93 | 1017.2 |
| 20260905171340 | 66 | 202 | 0.0 | 3.0 | 0.00 | 0.05 | 0.05 | 94 | 1017.3 |
| 20260905170836 | 66 | 219 | 3.0 | 6.0 | 0.00 | 0.05 | 0.05 | 94 | 1016.8 |
| 20260905170332 | 66 | 213 | 1.0 | 7.0 | 0.00 | 0.05 | 0.05 | 95 | 1017.5 |
| 20260905165831 | 66 | 192 | 0.0 | 5.0 | 0.00 | 0.05 | 0.05 | 95 | 1017.0 |
| 20260905165327 | 65 | 159 | 2.0 | 5.0 | 0.00 | 0.05 | 0.05 | 95 | 1017.0 |
| 20260905164826 | 65 | 191 | 0.0 | 2.0 | 0.00 | 0.05 | 0.05 | 95 | 1017.1 |
| 20260905164321 | 65 | 198 | 0.0 | 3.0 | 0.00 | 0.05 | 0.05 | 96 | 1017.4 |
| 20260905163817 | 64 | 166 | 0.0 | 2.0 | 0.00 | 0.05 | 0.05 | 96 | 1017.4 |
| 20260905163313 | 64 | 98 | 3.0 | 5.0 | 0.00 | 0.05 | 0.05 | 96 | 1017.2 |
| 20260905162809 | 64 | 206 | 2.0 | 5.0 | 0.00 | 0.05 | 0.05 | 96 | 1017.3 |
| 20260905162309 | 64 | 186 | 0.0 | 1.0 | 0.00 | 0.05 | 0.05 | 96 | 1017.5 |
| 20260905161803 | 64 | 60 | 2.0 | 3.0 | 0.00 | 0.05 | 0.05 | 96 | 1017.7 |
| 20260905161303 | 64 | 208 | 1.0 | 2.0 | 0.00 | 0.05 | 0.05 | 96 | 1017.4 |
| 20260905160801 | 63 | 156 | 0.0 | 3.0 | 0.00 | 0.05 | 0.05 | 96 | 1017.1 |
| 20260905160255 | 63 | 185 | 1.0 | 6.0 | 0.00 | 0.05 | 0.05 | 96 | 1016.6 |
| 20260905155750 | 63 | 183 | 1.0 | 6.0 | 0.00 | 0.05 | 0.05 | 96 | 1016.7 |
| 20260905155249 | 63 | 205 | 4.0 | 7.0 | 0.00 | 0.05 | 0.05 | 96 | 1016.5 |
| 20260905154743 | 62 | 168 | 3.0 | 7.0 | 0.00 | 0.05 | 0.05 | 96 | 1015.1 |
| 20260905154239 | 62 | 202 | 4.0 | 8.0 | 0.07 | 0.05 | 0.05 | 96 | 1015.0 |
| 20260905153735 | 62 | 176 | 3.0 | 5.0 | 0.07 | 0.05 | 0.05 | 96 | 1016.5 |
| 20260905153230 | 62 | 170 | 5.0 | 7.0 | 0.00 | 0.04 | 0.04 | 96 | 1017.5 |
| 20260905152724 | 62 | 132 | 3.0 | 6.0 | 0.00 | 0.04 | 0.04 | 96 | 1018.0 |
| 20260905152219 | 62 | 183 | 1.0 | 6.0 | 0.00 | 0.04 | 0.04 | 95 | 1017.9 |
| 20260905151719 | 62 | 127 | 1.0 | 3.0 | 0.00 | 0.04 | 0.04 | 95 | 1018.5 |
| 20260905151215 | 62 | 178 | 2.0 | 2.0 | 0.00 | 0.04 | 0.04 | 95 | 1018.7 |
| 20260905150710 | 62 | 151 | 1.0 | 3.0 | 0.00 | 0.04 | 0.04 | 95 | 1019.4 |
| 20260905150209 | 62 | 202 | 0.0 | 0.0 | 0.00 | 0.04 | 0.04 | 95 | 1019.6 |
| 20260905145706 | 61 | 215 | 1.0 | 1.0 | 0.07 | 0.04 | 0.04 | 95 | 1020.3 |
| 20260905145202 | 61 | 186 | 0.0 | 1.0 | 0.07 | 0.04 | 0.04 | 95 | 1020.7 |
| 20260905144700 | 61 | 190 | 0.0 | 1.0 | 0.00 | 0.03 | 0.03 | 95 | 1020.6 |
| 20260905144155 | 61 | 210 | 0.0 | 1.0 | 0.00 | 0.03 | 0.03 | 95 | 1020.9 |
| 20260905143654 | 61 | 212 | 0.0 | 1.0 | 0.00 | 0.03 | 0.03 | 95 | 1020.8 |
| 20260905143149 | 61 | 215 | 0.0 | 0.0 | 0.00 | 0.03 | 0.03 | 95 | 1020.8 |
| 20260905142647 | 61 | 196 | 0.0 | 1.0 | 0.00 | 0.03 | 0.03 | 95 | 1020.8 |
| 20260905142142 | 61 | 203 | 0.0 | 3.0 | 0.00 | 0.03 | 0.03 | 95 | 1020.5 |
| 20260905141637 | 61 | 214 | 1.0 | 2.0 | 0.00 | 0.03 | 0.03 | 95 | 1020.6 |
| 20260905141133 | 61 | 181 | 1.0 | 2.0 | 0.00 | 0.03 | 0.03 | 95 | 1020.0 |
| 20260905140628 | 61 | 190 | 0.0 | 3.0 | 0.00 | 0.03 | 0.03 | 95 | 1019.8 |
| 20260905140127 | 61 | 189 | 0.0 | 1.0 | 0.00 | 0.03 | 0.03 | 95 | 1019.6 |
| 20260905135622 | 62 | 188 | 0.0 | 2.0 | 0.00 | 0.03 | 0.03 | 95 | 1019.7 |
| 20260905135118 | 62 | 219 | 1.0 | 2.0 | 0.00 | 0.03 | 0.03 | 95 | 1019.7 |
| 20260905134612 | 62 | 168 | 0.0 | 2.0 | 0.00 | 0.03 | 0.03 | 95 | 1019.9 |
| 20260905134111 | 62 | 190 | 0.0 | 2.0 | 0.00 | 0.03 | 0.03 | 95 | 1019.8 |
| 20260905133606 | 61 | 212 | 0.0 | 0.0 | 0.00 | 0.03 | 0.03 | 95 | 1019.7 |
| 20260905133101 | 61 | 211 | 0.0 | 0.0 | 0.00 | 0.03 | 0.03 | 95 | 1019.7 |
| 20260905132601 | 61 | 210 | 0.0 | 0.0 | 0.05 | 0.03 | 0.03 | 95 | 1019.3 |
| 20260905132055 | 61 | 183 | 0.0 | 2.0 | 0.05 | 0.03 | 0.03 | 95 | 1019.5 |
| 20260905131551 | 61 | 212 | 0.0 | 0.0 | 0.00 | 0.02 | 0.02 | 95 | 1019.5 |
| 20260905131046 | 61 | 212 | 0.0 | 0.0 | 0.00 | 0.02 | 0.02 | 94 | 1019.6 |
| 20260905130545 | 61 | 213 | 0.0 | 0.0 | 0.00 | 0.02 | 0.02 | 94 | 1019.8 |
| 20260905130040 | 61 | 214 | 0.0 | 0.0 | 0.00 | 0.02 | 0.02 | 94 | 1019.6 |
| 20260905125539 | 61 | 215 | 0.0 | 0.0 | 0.07 | 0.02 | 0.02 | 94 | 1019.6 |
| 20260905125035 | 61 | 215 | 0.0 | 0.0 | 0.00 | 0.01 | 0.01 | 94 | 1019.6 |
| 20260905124532 | 61 | 213 | 0.0 | 0.0 | 0.05 | 0.01 | 0.01 | 94 | 1019.3 |
| 20260905124028 | 61 | 211 | 0.0 | 0.0 | 0.05 | 0.01 | 0.01 | 94 | 1019.2 |
| 20260905123523 | 60 | 198 | 0.0 | 0.0 | 0.00 | 0.00 | 0.00 | 94 | 1019.2 |
| 20260905123019 | 60 | 210 | 0.0 | 0.0 | 0.00 | 0.00 | 0.00 | 94 | 1018.8 |
| 20260905122514 | 60 | 268 | 0.0 | 1.0 | 0.00 | 0.00 | 0.00 | 94 | 1018.5 |
| 20260905122009 | 60 | 147 | 0.0 | 0.0 | 0.00 | 0.00 | 0.00 | 94 | 1018.4 |
| 20260905121508 | 60 | 216 | 0.0 | 0.0 | 0.00 | 0.00 | 0.00 | 94 | 1018.2 |
| 20260905121003 | 60 | 220 | 0.0 | 0.0 | 0.00 | 0.00 | 0.00 | 94 | 1017.9 |
| 20260905120457 | 60 | 212 | 0.0 | 0.0 | 0.00 | 0.00 | 0.00 | 94 | 1017.9 |
| 20260905115952 | 60 | 220 | 0.0 | 1.0 | 0.00 | 0.00 | 0.00 | 94 | 1017.4 |
| 20260905115451 | 60 | 212 | 0.0 | 0.0 | 0.00 | 0.00 | 0.00 | 94 | 1017.3 |
| 20260905114946 | 60 | 211 | 0.0 | 0.0 | 0.00 | 0.00 | 0.00 | 94 | 1017.2 |
| 20260905114446 | 60 | 208 | 0.0 | 0.0 | 0.00 | 0.00 | 0.00 | 94 | 1017.1 |
| 20260905113944 | 60 | 197 | 0.0 | 5.0 | 0.00 | 0.00 | 0.00 | 94 | 1017.1 |
| 20260905113440 | 60 | 182 | 0.0 | 2.0 | 0.00 | 0.00 | 0.00 | 94 | 1017.0 |
| 20260905112935 | 60 | 248 | 0.0 | 1.0 | 0.00 | 0.00 | 0.00 | 94 | 1016.9 |
| 20260905112431 | 60 | 181 | 0.0 | 1.0 | 0.00 | 0.00 | 0.00 | 94 | 1017.0 |
| 20260905111925 | 60 | 197 | 0.0 | 1.0 | 0.00 | 0.00 | 0.00 | 94 | 1017.1 |
| 20260905111420 | 60 | 212 | 0.0 | 0.0 | 0.00 | 0.00 | 0.00 | 94 | 1016.9 |
| 20260905110920 | 60 | 97 | 0.0 | 0.0 | 0.00 | 0.00 | 0.00 | 94 | 1016.7 |
| 20260905110414 | 61 | 212 | 0.0 | 0.0 | 0.00 | 0.00 | 0.00 | 94 | 1016.6 |
| 20260905105909 | 61 | 191 | 0.0 | 2.0 | 0.00 | 0.00 | 0.00 | 94 | 1016.9 |
| 20260905105409 | 61 | 185 | 0.0 | 2.0 | 0.00 | 0.00 | 0.00 | 94 | 1016.7 |
| 20260905104908 | 61 | 188 | 0.0 | 2.0 | 0.00 | 0.00 | 0.00 | 94 | 1016.7 |
| 20260905104404 | 61 | 131 | 1.0 | 2.0 | 0.00 | 0.00 | 0.00 | 94 | 1016.8 |
| 20260905103904 | 61 | 195 | 1.0 | 1.0 | 0.00 | 0.00 | 0.00 | 94 | 1016.8 |
| 20260905103400 | 61 | 189 | 0.0 | 1.0 | 0.00 | 0.00 | 0.00 | 94 | 1016.9 |
| 20260905102855 | 61 | 200 | 0.0 | 1.0 | 0.00 | 0.00 | 0.00 | 94 | 1016.7 |
| 20260905102352 | 61 | 195 | 0.0 | 2.0 | 0.00 | 0.00 | 0.00 | 94 | 1016.9 |
| 20260905101846 | 61 | 172 | 1.0 | 3.0 | 0.00 | 0.00 | 0.00 | 94 | 1016.8 |
| 20260905101344 | 61 | 182 | 0.0 | 2.0 | 0.00 | 0.00 | 0.00 | 94 | 1016.5 |
| 20260905100839 | 61 | 175 | 0.0 | 2.0 | 0.00 | 0.00 | 0.00 | 93 | 1016.6 |
| 20260905100336 | 61 | 195 | 0.0 | 1.0 | 0.00 | 0.00 | 0.00 | 93 | 1016.7 |
| 20260905095835 | 61 | 154 | 0.0 | 1.0 | 0.00 | 0.00 | 0.00 | 93 | 1016.7 |
| 20260905095335 | 61 | 184 | 1.0 | 2.0 | 0.00 | 0.00 | 0.00 | 93 | 1017.1 |
| 20260905094829 | 62 | 168 | 1.0 | 2.0 | 0.00 | 0.00 | 0.00 | 93 | 1016.8 |
| 20260905094325 | 62 | 198 | 0.0 | 2.0 | 0.00 | 0.00 | 0.00 | 93 | 1016.9 |
| 20260905093824 | 62 | 177 | 0.0 | 1.0 | 0.00 | 0.00 | 0.00 | 93 | 1016.5 |
| 20260905093320 | 62 | 208 | 1.0 | 3.0 | 0.00 | 0.00 | 0.00 | 93 | 1016.7 |
| 20260905092816 | 62 | 210 | 0.0 | 1.0 | 0.00 | 0.00 | 0.00 | 93 | 1016.8 |
| 20260905092316 | 62 | 183 | 0.0 | 1.0 | 0.00 | 0.00 | 0.00 | 93 | 1017.0 |
| 20260905091811 | 62 | 191 | 0.0 | 2.0 | 0.00 | 0.00 | 0.00 | 93 | 1017.0 |
| 20260905091310 | 62 | 190 | 0.0 | 2.0 | 0.00 | 0.00 | 0.00 | 93 | 1017.1 |
| 20260905090809 | 62 | 210 | 1.0 | 2.0 | 0.00 | 0.00 | 0.00 | 93 | 1017.1 |
| 20260905090305 | 62 | 190 | 1.0 | 2.0 | 0.00 | 0.00 | 0.00 | 93 | 1017.1 |
| 20260905085804 | 62 | 210 | 0.0 | 2.0 | 0.00 | 0.00 | 0.00 | 93 | 1017.2 |
| 20260905085259 | 62 | 206 | 0.0 | 1.0 | 0.00 | 0.00 | 0.00 | 93 | 1017.4 |
| 20260905084754 | 62 | 187 | 0.0 | 1.0 | 0.00 | 0.00 | 0.00 | 93 | 1017.5 |
| 20260905084254 | 62 | 203 | 1.0 | 2.0 | 0.00 | 0.00 | 0.00 | 92 | 1017.6 |
| 20260905083749 | 62 | 166 | 0.0 | 1.0 | 0.00 | 0.00 | 0.00 | 92 | 1017.5 |
| 20260905083244 | 62 | 199 | 0.0 | 1.0 | 0.00 | 0.00 | 0.00 | 92 | 1017.6 |
| 20260905082740 | 63 | 208 | 0.0 | 1.0 | 0.00 | 0.00 | 0.00 | 92 | 1017.7 |
| 20260905082236 | 63 | 162 | 1.0 | 2.0 | 0.00 | 0.00 | 0.00 | 92 | 1017.7 |
| 20260905081735 | 63 | 177 | 1.0 | 2.0 | 0.00 | 0.00 | 0.00 | 92 | 1017.7 |
| 20260905081231 | 63 | 195 | 0.0 | 2.0 | 0.00 | 0.00 | 0.00 | 92 | 1017.4 |
| 20260905080725 | 63 | 193 | 1.0 | 1.0 | 0.00 | 0.00 | 0.00 | 92 | 1017.7 |
| 20260905080225 | 63 | 178 | 1.0 | 2.0 | 0.00 | 0.00 | 0.00 | 92 | 1017.4 |
| 20260905075724 | 63 | 183 | 0.0 | 1.0 | 0.00 | 0.00 | 0.00 | 91 | 1017.3 |
| 20260905075223 | 63 | 173 | 1.0 | 3.0 | 0.00 | 0.00 | 0.00 | 91 | 1017.7 |
| 20260905074722 | 63 | 209 | 0.0 | 1.0 | 0.00 | 0.00 | 0.00 | 91 | 1017.4 |
| 20260905074218 | 63 | 192 | 0.0 | 1.0 | 0.00 | 0.00 | 0.00 | 91 | 1017.2 |
| 20260905073714 | 64 | 184 | 1.0 | 3.0 | 0.00 | 0.00 | 0.00 | 91 | 1017.5 |
| 20260905073209 | 64 | 189 | 0.0 | 2.0 | 0.00 | 0.00 | 0.00 | 91 | 1017.4 |
| 20260905072708 | 64 | 181 | 1.0 | 3.0 | 0.00 | 0.00 | 0.00 | 91 | 1017.4 |
| 20260905072203 | 64 | 148 | 0.0 | 3.0 | 0.00 | 0.00 | 0.00 | 91 | 1017.4 |
| 20260905071700 | 64 | 185 | 1.0 | 3.0 | 0.00 | 0.00 | 0.00 | 91 | 1017.3 |
| 20260905071156 | 64 | 169 | 1.0 | 1.0 | 0.00 | 0.00 | 0.00 | 90 | 1017.2 |
| 20260905070651 | 64 | 194 | 0.0 | 1.0 | 0.00 | 0.00 | 0.00 | 90 | 1017.1 |
| 20260905070147 | 64 | 172 | 1.0 | 2.0 | 0.00 | 0.00 | 0.00 | 90 | 1017.2 |
| 20260905065645 | 64 | 187 | 0.0 | 2.0 | 0.00 | 0.00 | 0.00 | 90 | 1017.2 |
| 20260905065139 | 64 | 190 | 1.0 | 2.0 | 0.00 | 0.00 | 0.00 | 90 | 1017.4 |
| 20260905064635 | 64 | 233 | 1.0 | 3.0 | 0.00 | 0.00 | 0.00 | 90 | 1017.4 |
| 20260905064130 | 64 | 165 | 1.0 | 2.0 | 0.00 | 0.00 | 0.00 | 90 | 1017.3 |
| 20260905063623 | 65 | 177 | 1.0 | 2.0 | 0.00 | 0.00 | 0.00 | 90 | 1017.3 |
| 20260905063120 | 65 | 200 | 0.0 | 2.0 | 0.00 | 0.00 | 0.00 | 89 | 1017.2 |
| 20260905062615 | 65 | 179 | 2.0 | 2.0 | 0.00 | 0.00 | 0.00 | 89 | 1017.3 |
| 20260905062114 | 65 | 187 | 0.0 | 2.0 | 0.00 | 0.00 | 0.00 | 89 | 1017.3 |
| 20260905061608 | 65 | 182 | 0.0 | 1.0 | 0.00 | 0.00 | 0.00 | 89 | 1017.5 |
| 20260905061103 | 65 | 164 | 1.0 | 2.0 | 0.00 | 0.00 | 0.00 | 89 | 1017.3 |
| 20260905060559 | 65 | 206 | 1.0 | 2.0 | 0.00 | 0.00 | 0.00 | 88 | 1017.4 |
| 20260905060055 | 65 | 188 | 0.0 | 2.0 | 0.00 | 0.00 | 0.00 | 88 | 1017.2 |
| 20260905055553 | 65 | 180 | 1.0 | 2.0 | 0.00 | 0.00 | 0.00 | 88 | 1017.5 |
| 20260905055048 | 66 | 184 | 2.0 | 2.0 | 0.00 | 0.00 | 0.00 | 88 | 1017.5 |
| 20260905054543 | 66 | 189 | 0.0 | 2.0 | 0.00 | 0.00 | 0.00 | 88 | 1017.3 |
| 20260905054038 | 66 | 159 | 1.0 | 2.0 | 0.00 | 0.00 | 0.00 | 88 | 1017.3 |
| 20260905053533 | 66 | 185 | 0.0 | 5.0 | 0.00 | 0.00 | 0.00 | 87 | 1017.5 |
| 20260905053029 | 66 | 189 | 0.0 | 1.0 | 0.00 | 0.00 | 0.00 | 87 | 1017.1 |
| 20260905052527 | 66 | 188 | 1.0 | 1.0 | 0.00 | 0.00 | 0.00 | 87 | 1016.9 |
| 20260905052022 | 66 | 207 | 0.0 | 1.0 | 0.00 | 0.00 | 0.00 | 87 | 1017.1 |
| 20260905051518 | 67 | 208 | 0.0 | 3.0 | 0.00 | 0.00 | 0.00 | 87 | 1017.1 |
| 20260905051015 | 67 | 224 | 0.0 | 2.0 | 0.00 | 0.00 | 0.00 | 86 | 1017.1 |
| 20260905050510 | 67 | 182 | 1.0 | 1.0 | 0.00 | 0.00 | 0.00 | 86 | 1017.0 |
| 20260905050008 | 67 | 187 | 1.0 | 1.0 | 0.00 | 0.00 | 0.00 | 86 | 1017.2 |
| 20260905045502 | 67 | 202 | 1.0 | 2.0 | 0.00 | 0.00 | 0.00 | 86 | 1017.0 |
| 20260905044956 | 67 | 204 | 0.0 | 5.0 | 0.00 | 0.00 | 0.00 | 86 | 1017.0 |
| 20260905044451 | 67 | 196 | 1.0 | 3.0 | 0.00 | 0.00 | 0.00 | 85 | 1017.0 |
| 20260905043951 | 67 | 202 | 0.0 | 1.0 | 0.00 | 0.00 | 0.00 | 85 | 1017.0 |
| 20260905043449 | 68 | 194 | 2.0 | 2.0 | 0.00 | 0.00 | 0.00 | 84 | 1017.0 |
| 20260905042944 | 68 | 197 | 0.0 | 1.0 | 0.00 | 0.00 | 0.00 | 84 | 1017.0 |
| 20260905042439 | 68 | 206 | 0.0 | 1.0 | 0.00 | 0.00 | 0.00 | 83 | 1016.8 |
| 20260905041934 | 68 | 190 | 0.0 | 2.0 | 0.00 | 0.00 | 0.00 | 83 | 1017.1 |
| 20260905041425 | 68 | 213 | 1.0 | 2.0 | 0.00 | 0.00 | 0.00 | 82 | 1017.2 |
| 20260905040924 | 68 | 202 | 1.0 | 1.0 | 0.00 | 0.00 | 0.00 | 82 | 1016.9 |
| 20260905040418 | 68 | 195 | 2.0 | 2.0 | 0.00 | 0.00 | 0.00 | 81 | 1017.0 |
| 20260905035918 | 69 | 211 | 0.0 | 1.0 | 0.00 | 0.00 | 0.00 | 81 | 1017.0 |
| 20260905035413 | 69 | 195 | 1.0 | 2.0 | 0.00 | 0.00 | 0.00 | 80 | 1017.1 |
| 20260905034910 | 69 | 193 | 0.0 | 2.0 | 0.00 | 0.00 | 0.00 | 80 | 1017.0 |
| 20260905034405 | 69 | 203 | 0.0 | 1.0 | 0.00 | 0.00 | 0.00 | 79 | 1016.9 |
| 20260905033904 | 69 | 197 | 0.0 | 1.0 | 0.00 | 0.00 | 0.00 | 79 | 1016.9 |
| 20260905033359 | 70 | 197 | 0.0 | 1.0 | 0.00 | 0.00 | 0.00 | 78 | 1017.0 |
| 20260905032858 | 70 | 181 | 1.0 | 1.0 | 0.00 | 0.00 | 0.00 | 78 | 1016.8 |
| 20260905032354 | 70 | 202 | 1.0 | 1.0 | 0.00 | 0.00 | 0.00 | 78 | 1017.1 |
| 20260905031849 | 70 | 206 | 0.0 | 0.0 | 0.00 | 0.00 | 0.00 | 78 | 1017.0 |
| 20260905031345 | 70 | 206 | 0.0 | 2.0 | 0.00 | 0.00 | 0.00 | 78 | 1016.9 |
| 20260905030840 | 70 | 209 | 0.0 | 1.0 | 0.00 | 0.00 | 0.00 | 78 | 1016.9 |
| 20260905030336 | 70 | 206 | 1.0 | 1.0 | 0.00 | 0.00 | 0.00 | 78 | 1016.9 |
| 20260905025835 | 70 | 210 | 0.0 | 1.0 | 0.00 | 0.00 | 0.00 | 77 | 1016.8 |
| 20260905025330 | 71 | 201 | 0.0 | 1.0 | 0.00 | 0.00 | 0.00 | 77 | 1016.7 |
| 20260905024827 | 71 | 208 | 0.0 | 1.0 | 0.00 | 0.00 | 0.00 | 77 | 1017.0 |
| 20260905024321 | 71 | 204 | 0.0 | 0.0 | 0.00 | 0.00 | 0.00 | 76 | 1016.9 |
| 20260905023817 | 71 | 204 | 0.0 | 1.0 | 0.00 | 0.00 | 0.00 | 76 | 1016.9 |
| 20260905023313 | 71 | 210 | 0.0 | 0.0 | 0.00 | 0.00 | 0.00 | 76 | 1016.8 |
| 20260905022811 | 71 | 205 | 0.0 | 1.0 | 0.00 | 0.00 | 0.00 | 76 | 1016.8 |
| 20260905022307 | 71 | 197 | 0.0 | 1.0 | 0.00 | 0.00 | 0.00 | 76 | 1016.6 |
| 20260905021806 | 71 | 208 | 0.0 | 1.0 | 0.00 | 0.00 | 0.00 | 77 | 1017.0 |
| 20260905021301 | 71 | 209 | 0.0 | 1.0 | 0.00 | 0.00 | 0.00 | 77 | 1016.7 |
| 20260905020756 | 71 | 210 | 0.0 | 0.0 | 0.00 | 0.00 | 0.00 | 77 | 1016.5 |
| 20260905020251 | 71 | 211 | 0.0 | 0.0 | 0.00 | 0.00 | 0.00 | 76 | 1016.7 |
| 20260905015750 | 72 | 214 | 0.0 | 0.0 | 0.00 | 0.00 | 0.00 | 75 | 1016.6 |
| 20260905015244 | 72 | 212 | 0.0 | 0.0 | 0.00 | 0.00 | 0.00 | 75 | 1016.4 |
| 20260905014743 | 72 | 208 | 0.0 | 0.0 | 0.00 | 0.00 | 0.00 | 74 | 1016.3 |
| 20260905014239 | 73 | 213 | 0.0 | 0.0 | 0.00 | 0.00 | 0.00 | 74 | 1016.3 |
| 20260905013735 | 73 | 211 | 0.0 | 0.0 | 0.00 | 0.00 | 0.00 | 74 | 1016.3 |
| 20260905013231 | 73 | 215 | 0.0 | 1.0 | 0.00 | 0.00 | 0.00 | 73 | 1016.4 |
| 20260905012726 | 74 | 205 | 0.0 | 1.0 | 0.00 | 0.00 | 0.00 | 72 | 1016.1 |
| 20260905012221 | 74 | 196 | 0.0 | 1.0 | 0.00 | 0.00 | 0.00 | 72 | 1016.3 |
| 20260905011718 | 74 | 200 | 0.0 | 1.0 | 0.00 | 0.00 | 0.00 | 71 | 1015.8 |
| 20260905011214 | 74 | 251 | 0.0 | 0.0 | 0.00 | 0.00 | 0.00 | 71 | 1015.9 |
| 20260905010714 | 75 | 209 | 0.0 | 0.0 | 0.00 | 0.00 | 0.00 | 70 | 1016.1 |
| 20260905010209 | 75 | 214 | 0.0 | 0.0 | 0.00 | 0.00 | 0.00 | 70 | 1016.3 |
| 20260905005706 | 75 | 212 | 0.0 | 0.0 | 0.00 | 0.00 | 0.00 | 69 | 1015.8 |
| 20260905005201 | 75 | 208 | 0.0 | 0.0 | 0.00 | 0.00 | 0.00 | 69 | 1016.2 |
| 20260905004655 | 76 | 205 | 0.0 | 0.0 | 0.00 | 0.00 | 0.00 | 68 | 1016.1 |
| 20260905004150 | 76 | 208 | 0.0 | 0.0 | 0.00 | 0.00 | 0.00 | 67 | 1015.9 |
| 20260905003646 | 77 | 212 | 0.0 | 1.0 | 0.00 | 0.00 | 0.00 | 66 | 1016.1 |
| 20260905003142 | 77 | 207 | 1.0 | 1.0 | 0.00 | 0.00 | 0.00 | 65 | 1015.9 |
| 20260905002637 | 78 | 202 | 0.0 | 1.0 | 0.00 | 0.00 | 0.00 | 64 | 1016.2 |
| 20260905002131 | 78 | 215 | 0.0 | 2.0 | 0.00 | 0.00 | 0.00 | 64 | 1015.9 |
| 20260905001627 | 79 | 190 | 1.0 | 3.0 | 0.00 | 0.00 | 0.00 | 64 | 1016.2 |
| 20260905001126 | 79 | 216 | 0.0 | 2.0 | 0.00 | 0.00 | 0.00 | 63 | 1016.4 |
| 20260905000621 | 79 | 202 | 0.0 | 2.0 | 0.00 | 0.00 | 0.00 | 63 | 1016.2 |
| 20260905000118 | 79 | 197 | 0.0 | 2.0 | 0.00 | 0.00 | 0.00 | 63 | 1016.3 |
| 20260904235617 | 80 | 186 | 2.0 | 2.0 | 0.00 | 0.00 | 0.00 | 62 | 1016.1 |
| 20260904235116 | 81 | 194 | 1.0 | 2.0 | 0.00 | 0.00 | 0.00 | 60 | 1016.5 |
| 20260904234612 | 80 | 212 | 0.0 | 1.0 | 0.00 | 0.00 | 0.00 | 61 | 1016.2 |
| 20260904234107 | 80 | 208 | 1.0 | 2.0 | 0.00 | 0.00 | 0.00 | 61 | 1016.5 |
| 20260904233603 | 80 | 174 | 2.0 | 3.0 | 0.00 | 0.00 | 0.00 | 61 | 1016.3 |
| 20260904233059 | 80 | 212 | 0.0 | 2.0 | 0.00 | 0.00 | 0.00 | 61 | 1016.2 |
| 20260904232555 | 80 | 218 | 2.0 | 2.0 | 0.00 | 0.00 | 0.00 | 61 | 1016.1 |
| 20260904232051 | 80 | 192 | 1.0 | 3.0 | 0.00 | 0.00 | 0.00 | 60 | 1016.5 |
| 20260904231546 | 80 | 206 | 1.0 | 2.0 | 0.00 | 0.00 | 0.00 | 60 | 1015.9 |
| 20260904231041 | 81 | 154 | 2.0 | 2.0 | 0.00 | 0.00 | 0.00 | 60 | 1016.2 |
| 20260904230540 | 81 | 221 | 1.0 | 2.0 | 0.00 | 0.00 | 0.00 | 61 | 1016.3 |
| 20260904230036 | 82 | 244 | 0.0 | 2.0 | 0.00 | 0.00 | 0.00 | 61 | 1016.3 |
| 20260904225534 | 81 | 223 | 2.0 | 2.0 | 0.00 | 0.00 | 0.00 | 60 | 1016.1 |
| 20260904225033 | 82 | 215 | 0.0 | 1.0 | 0.00 | 0.00 | 0.00 | 60 | 1016.2 |
| 20260904224529 | 81 | 264 | 1.0 | 2.0 | 0.00 | 0.00 | 0.00 | 60 | 1016.2 |
| 20260904224028 | 81 | 210 | 0.0 | 1.0 | 0.00 | 0.00 | 0.00 | 61 | 1016.1 |
| 20260904223527 | 80 | 199 | 1.0 | 2.0 | 0.00 | 0.00 | 0.00 | 61 | 1016.2 |
| 20260904223024 | 81 | 220 | 1.0 | 2.0 | 0.00 | 0.00 | 0.00 | 61 | 1016.1 |
| 20260904222519 | 80 | 209 | 1.0 | 5.0 | 0.00 | 0.00 | 0.00 | 63 | 1016.1 |
| 20260904222014 | 81 | 204 | 0.0 | 5.0 | 0.00 | 0.00 | 0.00 | 61 | 1016.2 |
| 20260904221509 | 81 | 220 | 0.0 | 1.0 | 0.00 | 0.00 | 0.00 | 64 | 1015.9 |
| 20260904221003 | 81 | 202 | 0.0 | 2.0 | 0.00 | 0.00 | 0.00 | 62 | 1015.9 |
| 20260904220503 | 80 | 179 | 2.0 | 2.0 | 0.00 | 0.00 | 0.00 | 62 | 1016.3 |
| 20260904215958 | 80 | 171 | 0.0 | 5.0 | 0.00 | 0.00 | 0.00 | 64 | 1015.9 |
| 20260904215453 | 79 | 198 | 0.0 | 1.0 | 0.00 | 0.00 | 0.00 | 64 | 1016.1 |
| 20260904214949 | 79 | 220 | 1.0 | 1.0 | 0.00 | 0.00 | 0.00 | 65 | 1015.8 |
| 20260904214444 | 79 | 198 | 1.0 | 2.0 | 0.00 | 0.00 | 0.00 | 65 | 1015.8 |
| 20260904213939 | 79 | 40 | 2.0 | 2.0 | 0.00 | 0.00 | 0.00 | 64 | 1015.7 |
| 20260904213433 | 78 | 224 | 1.0 | 5.0 | 0.00 | 0.00 | 0.00 | 66 | 1015.7 |
| 20260904212929 | 78 | 218 | 0.0 | 3.0 | 0.00 | 0.00 | 0.00 | 68 | 1015.7 |
| 20260904212428 | 78 | 208 | 2.0 | 5.0 | 0.00 | 0.00 | 0.00 | 67 | 1015.9 |
| 20260904211924 | 79 | 207 | 0.0 | 2.0 | 0.00 | 0.00 | 0.00 | 65 | 1016.1 |
| 20260904211418 | 78 | 181 | 1.0 | 2.0 | 0.00 | 0.00 | 0.00 | 66 | 1015.9 |
| 20260904210914 | 78 | 214 | 1.0 | 6.0 | 0.00 | 0.00 | 0.00 | 65 | 1015.9 |
| 20260904210413 | 78 | 198 | 0.0 | 1.0 | 0.00 | 0.00 | 0.00 | 66 | 1015.8 |
| 20260904205909 | 78 | 211 | 0.0 | 5.0 | 0.00 | 0.00 | 0.00 | 68 | 1016.1 |
| 20260904205404 | 77 | 336 | 2.0 | 3.0 | 0.00 | 0.00 | 0.00 | 68 | 1016.1 |
| 20260904204902 | 77 | 200 | 2.0 | 2.0 | 0.00 | 0.00 | 0.00 | 68 | 1016.2 |
| 20260904204357 | 77 | 196 | 1.0 | 3.0 | 0.00 | 0.00 | 0.00 | 68 | 1016.2 |
| 20260904203853 | 78 | 260 | 0.0 | 2.0 | 0.00 | 0.00 | 0.00 | 67 | 1016.1 |
| 20260904203349 | 78 | 50 | 4.0 | 5.0 | 0.00 | 0.00 | 0.00 | 67 | 1016.2 |
| 20260904202844 | 78 | 203 | 1.0 | 3.0 | 0.00 | 0.00 | 0.00 | 68 | 1016.3 |
| 20260904202341 | 77 | 214 | 1.0 | 1.0 | 0.00 | 0.00 | 0.00 | 69 | 1016.3 |